Location: Unspecified
(0.0000°N, 0.0000°E)
Time: 07:21:02
(UTC+00:00)

Vanguard 2 Rocket - Pass Details

Date: 09 October 2023
Orbit: 552 x 3312 km, 32.9° (Epoch: 06 December)

Event Time Altitude Azimuth Distance (km) Brightness Sun altitude
Rises 16:03:41 0° 302° (WNW) 7,281 12.2 25.7°
Reaches altitude 10° 16:08:39 10° 301° (WNW) 6,253 12.1 24.5°
Maximum altitude 16:28:27 76° 218° (SW) 2,764 9.8 19.6°
Drops below altitude 10° 16:41:19 10° 133° (SE) 4,288 10.0 16.4°
Sets 16:44:04 0° 131° (SE) 4,980 10.3 15.7°
